Keahole Point, HI

10:51 PM HST on April 27, 2017 (GMT -1000)
Kona International At Keahole

Weather History for PHKO - January, 2014

Change the Weather History Date:

Friday, January 31, 2014

  Actual Average Record
Temperature  
Mean Temperature 76 °F -  
Max Temperature 82 °F 79 °F 88 °F (1984)
Min Temperature 71 °F 66 °F 59 °F (1985)
Cooling Degree Days 12    
Growing Degree Days 26 (Base 50)    
Moisture  
Dew Point 65 °F    
Average Humidity 66    
Maximum Humidity 76    
Minimum Humidity 52    
Precipitation  
Precipitation 0.00 in - - ()
Sea Level Pressure  
Sea Level Pressure 29.86 in    
Wind  
Wind Speed 8 mph (North)    
Max Wind Speed 14 mph    
Max Gust Speed -    
Visibility 10 miles    
Events      
Averages and records for this station are not official NWS values.
T = Trace of Precipitation, MM = Missing Value Source: NWS Daily Summary

Daily Weather History Graph

Daily Weather History Graph

Search for Another Location

Airport or City:

Trip Planner

Search our weather history database for the weather conditions in past years. The results will help you decide how hot, cold, wet, or windy it might be!

Date:

Astronomy

Jan. 31, 2014 Rise Set
Actual Time 6:59 AM HST 6:16 PM HST
Civil Twilight 6:36 AM HST 6:39 PM HST
Nautical Twilight 6:10 AM HST 7:05 PM HST
Astronomical Twilight 5:43 AM HST 7:31 PM HST
Moon 7:32 AM HST (1/31) 7:34 PM HST (1/31)
Length of Visible Light 12h 02m
Length of Day
11h 16m
New Moon, 2% of the Moon is Illuminated
Jan 31
New Moon
Feb 6
First Quarter
Feb 14
Full
Feb 22
Last Quarter
Feb 28
New

Hourly Weather History & Observations

Time (HST) Temp. Heat Index Dew Point Humidity Pressure Visibility Wind Dir Wind Speed Gust Speed Precip Events Conditions
12:53 AM 72.0 °F - 63.0 °F 73% 29.87 in 10.0 mi North 11.5 mph - N/A   Clear
1:53 AM 72.0 °F - 63.0 °F 73% 29.86 in 10.0 mi NNE 13.8 mph - N/A   Clear
2:53 AM 72.0 °F - 64.0 °F 76% 29.85 in 10.0 mi NE 10.4 mph - N/A   Partly Cloudy
3:53 AM 72.0 °F - 63.0 °F 73% 29.85 in 10.0 mi NE 10.4 mph - N/A   Clear
4:53 AM 71.1 °F - 63.0 °F 75% 29.86 in 10.0 mi NE 8.1 mph - N/A   Clear
5:53 AM 71.1 °F - 63.0 °F 75% 29.88 in 10.0 mi NE 6.9 mph - N/A   Clear
6:53 AM 71.1 °F - 57.9 °F 63% 29.89 in 10.0 mi Calm Calm - N/A   Clear
7:53 AM 71.1 °F - 59.0 °F 66% 29.91 in 10.0 mi Calm Calm - N/A   Clear
8:53 AM 78.1 °F - 59.0 °F 52% 29.91 in 10.0 mi South 3.5 mph - N/A   Clear
9:53 AM 79.0 °F - 62.1 °F 56% 29.92 in 10.0 mi WSW 5.8 mph - N/A   Clear
10:53 AM 79.0 °F - 63.0 °F 58% 29.91 in 10.0 mi WNW 6.9 mph - N/A   Clear
11:53 AM 82.0 °F 83.4 °F 64.0 °F 54% 29.88 in 10.0 mi NNW 8.1 mph - N/A   Clear
12:53 PM 82.0 °F 84.1 °F 66.0 °F 58% 29.85 in 10.0 mi NW 10.4 mph - N/A   Clear
1:53 PM 82.0 °F 84.5 °F 66.9 °F 60% 29.83 in 10.0 mi NW 9.2 mph - N/A   Clear
2:53 PM 82.0 °F 84.1 °F 66.0 °F 58% 29.82 in 10.0 mi NW 8.1 mph - N/A   Clear
3:53 PM 81.0 °F 83.0 °F 66.0 °F 60% 29.82 in 10.0 mi WNW 6.9 mph - N/A   Partly Cloudy
4:53 PM 81.0 °F 83.3 °F 66.9 °F 62% 29.83 in 10.0 mi NW 9.2 mph - N/A   Overcast
5:53 PM 80.1 °F 82.7 °F 68.0 °F 67% 29.84 in 10.0 mi NNW 6.9 mph - N/A   Mostly Cloudy
6:04 PM 80.6 °F 83.2 °F 68.0 °F 65% 29.84 in 10.0 mi Variable 5.8 mph - N/A   Overcast
6:11 PM 78.8 °F - 68.0 °F 69% 29.84 in 10.0 mi Calm Calm - N/A   Overcast
6:53 PM 78.1 °F - 68.0 °F 71% 29.85 in 10.0 mi NNE 9.2 mph - N/A   Overcast
7:53 PM 77.0 °F - 66.9 °F 71% 29.87 in 10.0 mi NNE 9.2 mph - N/A   Clear
8:53 PM 75.9 °F - 66.9 °F 74% 29.88 in 10.0 mi North 9.2 mph - N/A   Partly Cloudy
9:53 PM 75.0 °F - 66.0 °F 73% 29.88 in 10.0 mi NNE 8.1 mph - N/A   Clear
10:53 PM 73.9 °F - 66.0 °F 76% 29.87 in 10.0 mi North 8.1 mph - N/A   Clear
11:53 PM 73.9 °F - 64.0 °F 71% 29.87 in 10.0 mi NNE 5.8 mph - N/A   Clear